Theta_e
309 310 310 308 308 312 315 317 317 317 317 311 307 306 306 305 304 311 310 308 307 305 306 308 308 310 310 312 312 312 313 312 314 314 314 313 315 316 315 316 316 318 322 331 331
307 308 309 310 308 307 307 310 315 317 317 316 310 306 305 305 308 311 309 308 304 303 304 307 309 310 311 312 311 311 312 313 312 311 311 312 313 313 314 314 315 317 324 330 329
305 306 308 309 309 309 308 305 306 312 316 317 315 308 305 305 310 310 308 306 304 302 307 307 308 310 311 312 312 311 311 313 311 311 310 310 311 312 313 313 314 314 322 328 329
304 305 307 306 306 308 309 308 305 304 311 316 316 311 305 308 310 309 306 306 305 304 307 307 308 310 311 312 312 311 311 311 312 310 310 310 310 311 311 311 312 311 316 326 327
304 302 303 305 303 305 306 308 307 303 303 314 316 311 307 308 309 308 306 306 305 309 308 308 309 310 310 310 311 311 312 310 310 309 309 309 308 309 308 308 309 311 311 320 323
304 303 302 302 303 305 304 306 305 305 303 307 316 311 310 312 308 308 309 306 309 308 307 308 308 309 309 309 310 310 310 310 310 310 309 309 309 309 309 309 308 309 308 310 317
302 304 304 302 302 302 302 304 305 303 304 302 314 310 310 313 309 309 309 308 308 307 308 308 308 309 309 308 309 310 309 308 307 309 309 310 309 309 308 307 308 309 310 308 309
303 302 302 303 302 303 303 303 304 303 303 305 313 310 310 311 310 309 309 308 307 307 307 307 308 310 309 309 309 308 309 309 309 308 309 309 307 309 309 309 308 307 307 307 308
304 303 302 302 300 301 302 302 302 302 303 307 311 308 312 310 307 308 309 308 307 307 307 308 309 309 309 309 308 309 306 309 310 309 308 307 309 309 308 308 307 307 307 307 306
303 303 303 302 302 301 302 302 302 303 305 311 308 310 312 313 310 307 307 308 308 309 309 309 309 309 310 307 309 309 308 307 306 308 307 307 306 307 307 308 308 308 308 309 307
303 303 303 302 301 302 303 304 306 307 307 310 309 310 312 309 307 308 308 307 308 309 309 310 309 309 308 308 306 307 306 307 308 306 306 306 307 307 307 307 306 307 308 308 307
304 304 303 304 302 304 304 305 304 304 308 308 309 310 310 309 310 309 308 308 308 309 308 310 309 309 309 308 308 308 306 305 305 306 306 306 305 306 306 306 306 306 306 307 308
303 303 302 303 302 303 304 304 304 305 305 305 309 309 311 312 311 311 308 308 307 309 308 310 311 309 309 310 309 308 307 306 306 307 306 305 304 305 305 305 305 305 306 306 307
302 301 301 300 301 302 303 304 304 304 304 304 305 307 309 311 314 311 308 307 309 309 309 309 309 308 309 309 309 309 308 308 307 307 306 305 304 306 306 308 307 306 305 305 305
300 301 301 300 301 302 303 304 304 303 306 305 305 306 308 311 312 313 309 309 311 310 310 311 309 310 309 309 309 309 307 307 308 308 308 306 304 306 305 306 307 306 306 305 305
299 299 299 300 300 300 303 304 303 306 305 304 307 309 311 310 311 313 310 309 310 311 310 311 307 308 308 308 307 307 308 308 309 309 311 309 306 307 307 307 306 307 307 306 305
297 300 299 298 299 300 301 304 305 306 303 305 310 310 311 311 311 314 312 311 312 313 312 310 309 307 307 307 307 307 310 316 317 312 310 308 307 308 308 307 308 309 308 307 308
296 297 299 299 298 298 300 301 305 303 304 306 310 310 311 311 311 311 312 312 311 312 312 313 312 308 306 308 308 306 308 316 312 316 315 306 307 308 308 308 308 306 308 308 309
296 294 298 298 298 297 300 302 304 303 303 303 309 311 311 311 310 310 313 313 311 311 315 313 313 309 306 307 307 308 308 309 311 305 311 310 309 309 308 307 307 306 306 308 309
296 296 296 298 298 297 298 299 302 303 303 302 303 310 311 310 311 311 311 311 313 311 312 317 318 309 308 306 308 308 308 309 309 313 315 314 314 314 311 308 308 306 305 306 310
295 295 295 297 298 298 297 298 299 299 302 304 304 302 308 310 310 311 312 310 311 312 311 313 317 311 309 307 308 308 308 310 310 313 316 316 316 313 314 313 312 307 305 306 310
292 296 295 296 297 297 298 297 297 299 298 301 302 304 305 304 309 310 311 310 309 311 313 312 316 311 311 309 307 307 309 309 311 310 309 315 316 311 311 309 309 310 306 305 309
295 294 294 296 295 295 297 297 297 297 297 299 302 305 305 305 304 304 308 309 309 310 312 312 315 317 312 310 308 308 308 309 310 311 311 312 313 310 310 310 309 309 306 305 307
293 294 294 295 296 295 295 296 297 298 298 296 297 299 302 303 305 305 304 308 309 310 312 313 313 315 314 311 310 308 308 308 309 310 312 311 311 312 311 310 309 307 307 304 304
294 295 294 295 294 296 295 294 296 295 295 296 297 297 300 302 303 304 304 304 307 310 312 312 315 313 313 312 311 309 307 308 308 309 311 312 311 311 311 310 310 308 306 305 303
294 294 295 295 296 295 295 295 295 294 296 296 297 297 297 301 301 304 304 303 303 305 308 311 312 312 311 311 311 312 310 308 309 308 309 309 310 312 310 311 310 308 306 305 303
292 293 295 295 294 295 295 295 295 295 294 295 296 297 296 295 296 297 298 300 302 304 305 308 310 313 314 311 310 313 311 312 308 308 309 310 310 311 311 312 311 308 305 305 304
Wind_Speed
16 15 14 12 12 12 11 10 10 13 13 13 14 15 16 18 20 12 9 6 4 8 2 1 4 6 5 3 3 3 3 5 8 5 2 7 2 5 2 3 1 4 5 12 22
13 14 14 14 13 14 14 13 12 13 13 13 13 14 15 18 19 16 12 11 9 4 5 6 5 7 4 3 3 3 3 7 6 8 6 7 2 6 1 6 4 6 9 19 19
14 14 14 14 14 14 14 15 15 13 14 13 12 13 15 15 7 2 0 8 10 6 4 7 9 4 6 5 4 5 4 4 7 8 9 6 7 5 4 6 6 10 15 14 15
14 16 15 14 15 15 15 15 16 15 13 14 12 12 12 5 3 3 6 5 7 7 4 5 5 4 5 7 9 5 6 8 4 4 4 5 6 7 6 10 3 7 6 13 12
16 17 16 15 17 17 17 15 16 16 15 12 11 10 5 3 7 7 6 1 4 6 9 7 7 6 5 5 8 5 6 7 5 5 4 8 9 8 12 12 10 4 7 10 9
17 17 16 17 16 14 15 16 15 17 15 12 9 6 3 5 3 2 3 2 2 7 7 9 3 6 4 7 4 4 5 8 7 7 6 5 6 5 6 11 12 11 10 9 10
19 18 17 17 17 17 17 14 13 16 17 13 9 4 5 13 4 3 4 2 3 6 6 10 8 3 2 4 4 3 6 8 9 9 6 3 8 13 20 13 10 7 4 10 10
21 21 18 18 17 17 17 17 16 18 19 11 8 3 6 5 11 13 8 5 5 4 5 6 4 6 3 2 3 4 4 4 2 9 4 4 7 8 3 2 10 12 8 9 9
23 22 23 22 23 20 18 16 19 19 20 12 6 3 8 5 8 17 13 4 5 4 2 2 4 4 3 3 3 5 4 7 4 3 6 7 6 4 3 2 6 8 9 9 10
24 24 24 23 22 21 19 16 17 19 13 7 1 2 9 7 8 8 15 11 3 6 3 4 4 3 4 5 6 6 4 5 7 5 3 6 14 14 11 7 7 7 8 6 8
26 24 23 24 23 21 16 12 8 6 17 9 11 11 6 7 7 8 17 13 6 4 6 6 5 11 14 14 8 5 7 7 3 4 1 8 13 11 9 8 9 8 8 8 9
29 24 23 19 21 20 16 8 9 2 8 23 23 20 27 1 4 10 19 10 8 9 9 5 15 10 11 12 11 9 7 6 7 4 2 9 13 14 9 10 10 10 10 10 8
27 22 22 17 21 21 20 21 18 8 6 14 21 22 20 14 10 15 16 9 10 14 15 13 0 19 14 11 11 11 10 6 6 1 7 8 9 10 10 18 13 10 10 9 11
26 23 18 20 12 17 19 19 17 0 5 9 12 15 21 15 12 22 29 10 7 16 13 13 17 4 14 13 10 10 8 9 5 2 3 5 6 6 7 5 6 9 9 10 9
25 20 17 20 4 13 13 19 16 2 6 7 13 12 15 26 13 22 29 16 15 13 10 8 7 16 10 10 7 3 2 7 5 3 5 5 4 6 8 4 8 11 11 10 9
31 27 23 21 18 18 11 20 12 5 13 7 11 14 16 29 10 16 17 11 6 11 13 12 2 9 6 7 12 8 6 7 4 1 3 9 8 5 6 9 8 5 7 9 9
32 27 27 25 10 19 24 8 6 13 5 7 8 14 18 16 23 15 20 22 11 9 14 11 9 2 4 5 4 7 7 2 2 0 7 3 6 11 8 10 4 3 6 9 9
29 30 29 26 24 20 22 7 14 17 17 9 10 14 19 16 25 17 21 19 23 13 10 12 6 14 7 7 10 12 10 5 7 5 4 3 8 6 14 6 3 6 6 8 8
25 26 21 26 24 26 8 14 10 12 21 15 15 15 16 18 9 24 24 24 21 22 9 11 8 18 18 8 12 6 9 3 4 0 2 6 5 8 8 10 6 6 5 9 9
28 21 23 27 25 18 11 23 11 15 14 27 25 11 13 18 15 22 17 18 22 24 12 4 3 5 12 12 10 8 9 4 2 4 5 4 6 10 1 8 8 8 10 9 10
22 6 25 32 23 7 11 10 13 17 18 18 14 25 14 14 20 19 15 12 27 22 23 6 2 1 6 13 17 5 8 6 6 5 6 1 6 10 16 10 5 8 9 9 9
5 7 13 25 12 7 14 6 7 12 14 13 11 14 18 21 17 22 22 14 15 22 24 24 3 4 17 1 10 20 15 17 6 4 4 3 10 3 6 7 7 5 8 8 9
3 5 9 24 12 17 10 7 14 18 20 4 4 8 6 12 17 20 20 16 16 14 23 19 9 8 3 4 9 10 19 19 11 3 7 8 6 5 8 7 6 5 7 7 8
4 4 6 8 7 19 17 20 15 10 14 15 16 18 17 15 15 12 17 9 16 18 7 14 15 25 20 23 10 9 10 20 18 5 14 17 15 1 5 6 7 6 7 9 9
5 5 5 7 15 17 20 17 20 19 21 17 13 22 18 14 18 14 18 13 11 12 5 6 12 22 22 18 7 18 17 17 20 27 15 28 18 16 7 7 7 8 7 7 7
5 4 3 6 7 23 22 23 28 24 13 19 18 14 19 15 10 8 13 15 15 10 13 15 6 6 15 22 17 18 17 23 25 26 22 27 23 5 9 7 5 8 9 8 9
5 3 2 3 10 9 16 23 22 22 22 21 19 17 19 18 17 16 17 18 21 12 11 9 6 8 19 22 19 19 24 19 23 26 24 20 34 7 8 10 8 10 12 13 11
Wind_Direction
350 347 344 344 333 324 344 356 354 344 336 337 334 333 333 330 324 319 269 247 215 245 157 235 223 227 251 258 301 295 281 251 258 251 311 110 256 122 40 327 66 134 54 104 129
331 339 342 338 334 335 330 323 336 347 346 326 334 332 333 333 321 281 253 258 253 251 225 231 199 201 220 224 207 234 230 242 8 18 11 19 1 334 172 208 208 119 99 119 139
319 316 320 333 334 334 332 331 323 321 338 327 323 332 334 341 310 19 269 264 230 211 234 256 281 210 231 200 213 212 232 285 5 29 14 330 320 258 283 266 219 198 165 154 165
307 312 308 310 316 326 325 326 328 322 310 328 313 324 334 347 310 337 333 289 221 192 235 217 232 203 229 222 215 262 264 279 327 76 346 292 344 312 265 252 10 39 125 157 174
294 299 304 306 303 303 316 320 326 325 315 317 309 319 0 265 259 303 317 350 179 179 212 216 219 224 232 233 233 230 271 287 275 315 270 275 274 265 275 283 293 175 126 169 182
286 287 298 295 300 308 297 307 323 328 322 297 302 297 255 260 264 296 290 153 197 216 227 246 272 248 320 280 220 34 309 297 296 275 243 225 259 294 250 241 244 249 181 197 195
276 281 276 291 294 300 302 297 306 323 325 305 292 258 253 236 215 296 232 224 232 236 266 243 289 281 264 255 277 291 304 280 237 223 235 48 274 231 244 245 253 248 213 195 208
269 268 277 279 285 291 292 291 294 306 315 298 273 213 249 255 239 238 218 219 217 226 292 283 276 284 262 24 222 237 199 293 18 195 146 130 275 286 179 272 229 233 218 198 209
260 265 272 275 280 284 287 289 289 291 298 284 196 194 264 222 224 225 198 179 162 181 221 244 235 242 152 231 242 198 254 204 253 228 119 181 275 53 52 308 289 289 234 204 196
263 263 266 271 275 275 276 281 292 279 284 190 198 286 243 221 174 184 192 180 151 154 139 193 218 220 208 187 206 211 220 241 247 177 192 211 255 271 274 236 233 252 293 203 179
261 263 264 268 268 266 273 288 262 229 218 210 189 213 75 141 125 188 169 177 179 192 178 207 208 206 205 214 254 357 324 290 249 101 184 235 256 261 256 267 269 248 215 233 203
258 256 258 263 257 250 251 235 282 84 292 228 256 223 250 189 232 193 169 172 190 191 200 173 233 217 219 220 237 264 272 275 300 124 104 274 268 270 248 238 223 226 231 222 197
251 246 249 257 257 252 242 237 242 310 268 251 230 236 224 223 226 190 180 194 185 195 200 210 114 204 226 222 218 225 239 240 247 333 231 265 276 238 250 237 240 237 226 216 200
239 243 241 250 272 242 237 237 226 302 270 243 212 230 213 230 243 221 189 171 181 206 199 235 234 227 212 227 201 237 211 230 263 340 245 48 286 314 303 182 197 231 221 218 211
236 230 238 225 219 222 210 208 196 184 269 193 188 179 184 187 129 196 183 215 200 189 182 205 193 206 223 208 181 220 119 187 207 231 326 205 250 258 239 246 236 230 216 208 201
279 228 228 237 228 243 220 186 150 184 236 213 155 173 162 197 210 150 172 216 200 209 226 207 8 181 194 179 195 135 106 73 66 114 266 193 188 227 210 219 231 244 223 180 177
269 248 215 217 218 226 232 186 203 210 186 200 169 172 186 184 210 167 182 200 176 187 207 202 194 184 193 113 143 177 151 63 359 284 230 279 202 246 301 283 243 223 199 161 144
267 268 225 215 205 228 221 237 209 225 218 132 155 174 198 165 207 198 185 197 213 199 164 189 197 174 183 182 175 194 181 153 190 199 231 325 229 259 221 249 193 164 118 141 147
257 260 233 225 206 201 238 222 221 205 201 245 158 176 210 194 188 203 200 208 202 207 179 187 237 183 176 181 142 185 224 215 69 110 19 217 265 284 234 252 229 187 181 167 160
248 238 235 223 205 190 226 247 253 257 261 207 234 195 188 210 205 192 197 213 215 213 224 194 143 192 171 200 208 157 149 137 254 182 234 266 268 234 176 228 234 197 193 185 166
247 227 234 211 196 204 224 233 246 273 271 246 242 234 223 194 214 202 206 219 202 206 213 204 179 201 148 209 185 138 198 199 158 203 187 217 253 203 224 231 238 224 175 173 170
230 195 190 176 212 233 234 185 223 267 292 282 258 259 257 239 213 215 223 200 206 207 201 213 225 161 202 264 208 209 207 191 177 213 235 165 249 106 112 146 136 130 175 172 165
234 226 226 182 209 233 221 222 226 247 249 246 283 244 257 254 258 242 238 222 242 219 206 196 213 205 125 323 245 222 222 214 233 77 209 189 260 213 137 120 124 143 151 150 156
180 230 208 211 220 218 231 233 231 215 249 242 252 283 267 256 276 267 242 252 222 229 229 214 211 217 218 219 140 191 203 225 212 219 221 218 227 174 161 183 154 159 160 161 165
185 215 190 201 225 216 219 227 234 236 236 237 241 241 261 229 243 266 269 241 271 239 215 196 217 214 231 250 213 199 193 213 221 222 213 237 236 225 205 204 193 194 175 162 173
198 199 152 225 206 211 220 226 228 232 204 221 225 230 234 268 250 254 261 265 236 235 228 220 230 241 240 240 237 243 211 206 210 227 226 242 259 165 219 245 180 183 172 185 195
196 147 103 221 218 207 218 232 228 227 234 233 220 222 236 241 247 267 270 265 281 283 252 264 252 233 243 233 231 236 231 211 229 231 214 228 240 271 229 217 215 213 190 195 200